,,,PA_Meas_PMT16A,,PR_Meas_QMR101_102,,RH_Meas_QMH101,,SR_Meas_QMS101,,TA_Meas_QMH101,,GenWind,,GenWind,
date,time,status,PA,status,PR,status,RH,status,SR,status,TA,status,DirAvg,status,SpdAvg,
2014-08-11, 00:00:04,VALID,1011.85,VALID,0,INVALID,124.834,VALID,0.112112,VALID,22.7199,VALID,251,VALID,0,
2014-08-11, 00:01:04,VALID,1011.84,VALID,0,INVALID,124.727,VALID,0,VALID,22.7588,VALID,240,VALID,0,
2014-08-11, 00:02:04,VALID,1011.81,VALID,0,INVALID,124.673,VALID,0,VALID,22.7783,VALID,235,VALID,0,
2014-08-11, 00:03:04,VALID,1011.79,VALID,0,INVALID,124.658,VALID,0,VALID,22.7588,VALID,243,VALID,0,
2014-08-11, 00:04:04,VALID,1011.74,VALID,0,INVALID,124.666,VALID,0,VALID,22.7783,VALID,213,VALID,0,
2014-08-11, 00:05:04,VALID,1011.74,VALID,0,INVALID,124.666,VALID,0,VALID,22.7783,VALID,257,VALID,0,
2014-08-11, 00:06:04,VALID,1011.71,VALID,0,INVALID,124.635,VALID,0,VALID,22.7783,VALID,208,VALID,0,
2014-08-11, 00:07:04,VALID,1011.65,VALID,0,INVALID,124.605,VALID,0,VALID,22.8173,VALID,176,VALID,0,
2014-08-11, 00:08:04,VALID,1011.57,VALID,0,INVALID,124.521,VALID,0,VALID,22.8173,VALID,176,VALID,0,
2014-08-11, 00:09:04,VALID,1011.49,VALID,0,INVALID,124.49,VALID,0,VALID,22.8173,VALID,254,VALID,0,
2014-08-11, 00:10:04,VALID,1011.39,VALID,0,INVALID,124.605,VALID,0,VALID,22.8368,VALID,260,VALID,0,
2014-08-11, 00:11:04,VALID,1011.34,VALID,0,INVALID,124.559,VALID,0,VALID,22.8562,VALID,263,VALID,0,
2014-08-11, 00:12:04,VALID,1011.3,VALID,0,INVALID,124.506,VALID,0,VALID,22.8562,VALID,263,VALID,0,
2014-08-11, 00:13:04,VALID,1011.27,VALID,0,INVALID,124.605,VALID,0,VALID,22.8952,VALID,263,VALID,0,
2014-08-11, 00:14:04,VALID,1011.2,VALID,0,INVALID,124.612,VALID,0,VALID,22.8952,VALID,296,VALID,0,
2014-08-11, 00:15:04,VALID,1011.19,VALID,0,INVALID,124.551,VALID,0,VALID,22.9147,VALID,305,VALID,0,
2014-08-11, 00:16:04,VALID,1011.15,VALID,0,INVALID,124.834,VALID,0,VALID,22.9536,VALID,305,VALID,0,
2014-08-11, 00:17:04,VALID,1011.12,VALID,0,INVALID,124.956,VALID,0,VALID,22.9536,VALID,275,VALID,0,
2014-08-11, 00:18:04,VALID,1011.14,VALID,0,INVALID,124.986,VALID,0,VALID,22.9536,VALID,275,VALID,0,
2014-08-11, 00:19:04,VALID,1011.15,VALID,0,INVALID,125.024,VALID,0,VALID,22.9342,VALID,275,VALID,0,
2014-08-11, 00:20:04,VALID,1011.26,VALID,0,INVALID,125.177,VALID,0,VALID,22.9731,VALID,226,VALID,0,
2014-08-11, 00:21:04,VALID,1011.29,VALID,0,INVALID,125.329,VALID,0,VALID,22.9536,VALID,229,VALID,0,
2014-08-11, 00:22:04,VALID,1011.28,VALID,0,INVALID,125.589,VALID,0,VALID,22.9926,VALID,223,VALID,0,
2014-08-11, 00:23:04,VALID,1011.34,VALID,0,INVALID,125.627,VALID,0,VALID,22.9926,VALID,223,VALID,0,
2014-08-11, 00:24:04,VALID,1011.34,VALID,0,INVALID,125.596,VALID,0,VALID,23.0121,VALID,277,VALID,0,
2014-08-11, 00:25:04,VALID,1011.37,VALID,0,INVALID,125.596,VALID,0,VALID,23.0316,VALID,229,VALID,0,
2014-08-11, 00:26:04,VALID,1011.34,VALID,0,INVALID,126.077,VALID,0,VALID,23.0316,VALID,318,VALID,0,
2014-08-11, 00:27:04,VALID,1011.35,VALID,0,INVALID,126.115,VALID,0,VALID,23.0705,VALID,209,VALID,0,
2014-08-11, 00:28:04,VALID,1011.34,VALID,0,INVALID,126.092,VALID,0,VALID,23.1095,VALID,207,VALID,0,
2014-08-11, 00:29:04,VALID,1011.3,VALID,0,INVALID,126.115,VALID,0,VALID,23.1095,VALID,205,VALID,0,
2014-08-11, 00:30:04,VALID,1011.29,VALID,0,INVALID,126.145,VALID,0,VALID,23.1272,VALID,248,VALID,0,
2014-08-11, 00:31:04,VALID,1011.27,VALID,0,INVALID,126.183,VALID,0,VALID,23.1272,VALID,231,VALID,0,
2014-08-11, 00:32:04,VALID,1011.24,VALID,0,INVALID,126.26,VALID,0,VALID,23.1485,VALID,210,VALID,0,
2014-08-11, 00:33:04,VALID,1011.25,VALID,0,INVALID,126.321,VALID,0,VALID,23.1874,VALID,265,VALID,0,
2014-08-11, 00:34:04,VALID,1011.25,VALID,0,INVALID,126.519,VALID,0,VALID,23.1874,VALID,254,VALID,0,
2014-08-11, 00:35:04,VALID,1011.29,VALID,0,INVALID,126.854,VALID,0,VALID,23.1679,VALID,237,VALID,0,
2014-08-11, 00:36:04,VALID,1011.24,VALID,0,INVALID,127.068,VALID,0,VALID,23.1679,VALID,194,VALID,0,
2014-08-11, 00:37:04,VALID,1011.23,VALID,0,INVALID,127.365,VALID,0,VALID,23.1874,VALID,212,VALID,0,
2014-08-11, 00:38:04,VALID,1011.22,VALID,0,INVALID,127.815,VALID,0,VALID,23.1874,VALID,209,VALID,0,
2014-08-11, 00:39:04,VALID,1011.19,VALID,0,INVALID,127.914,VALID,0,VALID,23.1874,VALID,209,VALID,0,
2014-08-11, 00:40:04,VALID,1011.15,VALID,0,INVALID,128.014,VALID,0,VALID,23.2069,VALID,206,VALID,0,
2014-08-11, 00:41:04,VALID,1011.11,VALID,0,INVALID,128.136,VALID,0,VALID,23.1874,VALID,215,VALID,0,
2014-08-11, 00:42:04,VALID,1011.14,VALID,0,INVALID,128.402,VALID,0,VALID,23.1679,VALID,244,VALID,0,
2014-08-11, 00:43:04,VALID,1011.12,VALID,0,INVALID,128.585,VALID,0,VALID,23.1485,VALID,244,VALID,0,
2014-08-11, 00:44:04,VALID,1011.16,VALID,0,INVALID,128.768,VALID,0,VALID,23.129,VALID,244,VALID,0,
2014-08-11, 00:45:04,VALID,1011.16,VALID,0,INVALID,128.936,VALID,0,VALID,23.129,VALID,273,VALID,0,
2014-08-11, 00:46:04,VALID,1011.16,VALID,0,INVALID,129.028,VALID,0,VALID,23.129,VALID,273,VALID,0,
2014-08-11, 00:47:04,VALID,1011.16,VALID,0,INVALID,129.089,VALID,0,VALID,23.1095,VALID,273,VALID,0,
2014-08-11, 00:48:04,VALID,1011.16,VALID,0,INVALID,129.142,VALID,0,VALID,23.1095,VALID,273,VALID,0,
2014-08-11, 00:49:04,VALID,1011.13,VALID,0,INVALID,129.165,VALID,0,VALID,23.1095,VALID,273,VALID,0,
2014-08-11, 00:50:04,VALID,1011.13,VALID,0,INVALID,129.264,VALID,0,VALID,23.09,VALID,273,VALID,0,
2014-08-11, 00:51:04,VALID,1011.11,VALID,0,INVALID,129.333,VALID,0,VALID,23.09,VALID,273,VALID,0,
2014-08-11, 00:52:04,VALID,1011.12,VALID,0,INVALID,129.447,VALID,0,VALID,23.09,VALID,273,VALID,0,
2014-08-11, 00:53:04,VALID,1011.07,VALID,0,INVALID,129.539,VALID,0,VALID,23.0918,VALID,273,VALID,0,
2014-08-11, 00:54:04,VALID,1011.04,VALID,0,INVALID,129.6,VALID,0,VALID,23.0705,VALID,273,VALID,0,
2014-08-11, 00:55:04,VALID,1011.06,VALID,0,INVALID,129.623,VALID,0,VALID,23.0705,VALID,273,VALID,0,
2014-08-11, 00:56:04,VALID,1011.02,VALID,0,INVALID,129.607,VALID,0,VALID,23.0511,VALID,273,VALID,0,
2014-08-11, 00:57:04,VALID,1011.05,VALID,0,INVALID,129.531,VALID,0,VALID,23.0705,VALID,273,VALID,0,
2014-08-11, 00:58:04,VALID,1011.03,VALID,0,INVALID,129.546,VALID,0.112112,VALID,23.0705,VALID,273,VALID,0,
2014-08-11, 00:59:04,VALID,1011.01,VALID,0,INVALID,129.592,VALID,0,VALID,23.0511,VALID,273,VALID,0,
2014-08-11, 01:00:04,VALID,1010.97,VALID,0,INVALID,129.577,VALID,0.112112,VALID,23.0705,VALID,273,VALID,0,
2014-08-11, 01:01:04,VALID,1011,VALID,0,INVALID,129.584,VALID,0,VALID,23.0511,VALID,273,VALID,0,
2014-08-11, 01:02:04,VALID,1011.03,VALID,0,INVALID,129.63,VALID,0,VALID,23.0316,VALID,273,VALID,0,
2014-08-11, 01:03:04,VALID,1011.06,VALID,0,INVALID,129.745,VALID,0,VALID,23.0121,VALID,273,VALID,0,
2014-08-11, 01:04:04,VALID,1011.07,VALID,0,INVALID,129.798,VALID,0,VALID,23.0528,VALID,273,VALID,0,
2014-08-11, 01:05:04,VALID,1011.09,VALID,0,INVALID,129.836,VALID,0,VALID,23.0121,VALID,273,VALID,0,
2014-08-11, 01:06:04,VALID,1011.09,VALID,0,INVALID,130.072,VALID,0.112112,VALID,23.0528,VALID,273,VALID,0,
2014-08-11, 01:07:04,VALID,1011.06,VALID,0,INVALID,130.133,VALID,0,VALID,23.0316,VALID,273,VALID,0,
2014-08-11, 01:08:04,VALID,1011.06,VALID,0,INVALID,130.255,VALID,0,VALID,23.0298,VALID,273,VALID,0,
2014-08-11, 01:09:04,VALID,1011.04,VALID,0,INVALID,130.385,VALID,0,VALID,23.0316,VALID,273,VALID,0,
2014-08-11, 01:10:04,VALID,1011.06,VALID,0,INVALID,130.477,VALID,0,VALID,23.0723,VALID,273,VALID,0,
2014-08-11, 01:11:04,VALID,1011.03,VALID,0,INVALID,130.477,VALID,0,VALID,23.0511,VALID,273,VALID,0,
2014-08-11, 01:12:04,VALID,1011.04,VALID,0,INVALID,130.629,VALID,0,VALID,23.0511,VALID,218,VALID,0,
2014-08-11, 01:13:04,VALID,1011.03,VALID,0,INVALID,130.766,VALID,0,VALID,23.0316,VALID,218,VALID,0,
2014-08-11, 01:14:04,VALID,1010.99,VALID,0,INVALID,130.965,VALID,0,VALID,23.0333,VALID,218,VALID,0,
2014-08-11, 01:15:04,VALID,1011.01,VALID,0,INVALID,131.026,VALID,0,VALID,23.0511,VALID,219,VALID,0,
2014-08-11, 01:16:04,VALID,1011.04,VALID,0,INVALID,131.285,VALID,0,VALID,23.0333,VALID,221,VALID,0,
2014-08-11, 01:17:04,VALID,1011.05,VALID,0,INVALID,131.537,VALID,0,VALID,23.0316,VALID,221,VALID,0,
2014-08-11, 01:18:04,VALID,1011.06,VALID,0,INVALID,131.849,VALID,0,VALID,23.0316,VALID,200,VALID,0,
2014-08-11, 01:19:04,VALID,1011.04,VALID,0,INVALID,132.063,VALID,0,VALID,23.0511,VALID,200,VALID,0,
2014-08-11, 01:20:04,VALID,1011.02,VALID,0,INVALID,132.032,VALID,0,VALID,23.0493,VALID,212,VALID,0,
2014-08-11, 01:21:04,VALID,1011.02,VALID,0,INVALID,132.208,VALID,0,VALID,23.0705,VALID,201,VALID,0,
2014-08-11, 01:22:04,VALID,1010.99,VALID,0,INVALID,132.49,VALID,0.112112,VALID,23.1095,VALID,189,VALID,0,
2014-08-11, 01:23:04,VALID,1010.96,VALID,0,INVALID,132.81,VALID,0.112112,VALID,23.09,VALID,199,VALID,0,
2014-08-11, 01:24:04,VALID,1010.93,VALID,0,INVALID,133.176,VALID,0.112112,VALID,23.09,VALID,265,VALID,0,
2014-08-11, 01:25:04,VALID,1010.89,VALID,0,INVALID,133.565,VALID,0,VALID,23.0705,VALID,262,VALID,0,
2014-08-11, 01:26:04,VALID,1010.87,VALID,0,INVALID,133.847,VALID,0,VALID,23.0316,VALID,251,VALID,0,
2014-08-11, 01:27:04,VALID,1010.84,VALID,0,INVALID,134.183,VALID,0,VALID,23.0316,VALID,214,VALID,0,
2014-08-11, 01:28:04,VALID,1010.8,VALID,0,INVALID,134.465,VALID,0.112112,VALID,23.0121,VALID,221,VALID,0,
2014-08-11, 01:29:04,VALID,1010.77,VALID,0,INVALID,134.701,VALID,0,VALID,22.9731,VALID,229,VALID,0,
2014-08-11, 01:30:04,VALID,1010.74,VALID,0,INVALID,134.991,VALID,0.112112,VALID,22.9519,VALID,229,VALID,0,
2014-08-11, 01:31:04,VALID,1010.71,VALID,0,INVALID,135.266,VALID,0.112112,VALID,22.9731,VALID,179,VALID,0,
2014-08-11, 01:32:04,VALID,1010.67,VALID,0,INVALID,135.372,VALID,0.112112,VALID,22.9731,VALID,179,VALID,0,
2014-08-11, 01:33:04,VALID,1010.64,VALID,0,INVALID,135.449,VALID,0,VALID,22.9536,VALID,184,VALID,0,
2014-08-11, 01:34:04,VALID,1010.63,VALID,0,INVALID,135.525,VALID,0.112112,VALID,22.9342,VALID,183,VALID,0,
2014-08-11, 01:35:04,VALID,1010.6,VALID,0,INVALID,135.609,VALID,0.112112,VALID,22.9342,VALID,183,VALID,0,
2014-08-11, 01:36:04,VALID,1010.6,VALID,0,INVALID,135.83,VALID,0.112112,VALID,22.8952,VALID,183,VALID,0,
2014-08-11, 01:37:04,VALID,1010.59,VALID,0,INVALID,135.891,VALID,0.112112,VALID,22.8757,VALID,183,VALID,0,
2014-08-11, 01:38:04,VALID,1010.62,VALID,0,INVALID,135.876,VALID,0,VALID,22.8757,VALID,183,VALID,0,
2014-08-11, 01:39:04,VALID,1010.61,VALID,0,INVALID,136.036,VALID,0,VALID,22.8562,VALID,183,VALID,0,
2014-08-11, 01:40:04,VALID,1010.61,VALID,0,INVALID,136.005,VALID,0,VALID,22.858,VALID,183,VALID,0,
2014-08-11, 01:41:04,VALID,1010.61,VALID,0,INVALID,135.967,VALID,0,VALID,22.8155,VALID,183,VALID,0,
2014-08-11, 01:42:04,VALID,1010.6,VALID,0,INVALID,135.921,VALID,0,VALID,22.8155,VALID,183,VALID,0,
2014-08-11, 01:43:04,VALID,1010.6,VALID,0,INVALID,135.822,VALID,0,VALID,22.835,VALID,183,VALID,0,
2014-08-11, 01:44:04,VALID,1010.58,VALID,0,INVALID,135.708,VALID,0,VALID,22.8562,VALID,183,VALID,0,
2014-08-11, 01:45:04,VALID,1010.58,VALID,0,INVALID,135.639,VALID,0.112112,VALID,22.8562,VALID,183,VALID,0,
2014-08-11, 01:46:04,VALID,1010.57,VALID,0,INVALID,135.594,VALID,0,VALID,22.835,VALID,183,VALID,0,
2014-08-11, 01:47:04,VALID,1010.54,VALID,0,INVALID,135.494,VALID,0,VALID,22.8155,VALID,183,VALID,0,
2014-08-11, 01:48:04,VALID,1010.49,VALID,0,INVALID,135.334,VALID,0.112112,VALID,22.8562,VALID,183,VALID,0,
2014-08-11, 01:49:04,VALID,1010.46,VALID,0,INVALID,135.166,VALID,0.112112,VALID,22.835,VALID,183,VALID,0,
2014-08-11, 01:50:04,VALID,1010.41,VALID,0,INVALID,135.044,VALID,0.112112,VALID,22.835,VALID,183,VALID,0,
2014-08-11, 01:51:04,VALID,1010.39,VALID,0,INVALID,134.869,VALID,0.112112,VALID,22.8155,VALID,183,VALID,0,
2014-08-11, 01:52:04,VALID,1010.34,VALID,0,INVALID,134.724,VALID,0.112112,VALID,22.8155,VALID,183,VALID,0,
2014-08-11, 01:53:04,VALID,1010.31,VALID,0,INVALID,134.671,VALID,0.112112,VALID,22.8155,VALID,183,VALID,0,
2014-08-11, 01:54:04,VALID,1010.31,VALID,0,INVALID,134.495,VALID,0.112112,VALID,22.8155,VALID,183,VALID,0,
2014-08-11, 01:55:04,VALID,1010.27,VALID,0,INVALID,134.366,VALID,0.112112,VALID,22.8155,VALID,183,VALID,0,
2014-08-11, 01:56:04,VALID,1010.27,VALID,0,INVALID,134.236,VALID,0,VALID,22.8155,VALID,257,VALID,0,
2014-08-11, 01:57:04,VALID,1010.24,VALID,0,INVALID,134.107,VALID,0.112112,VALID,22.8155,VALID,257,VALID,0,
2014-08-11, 01:58:04,VALID,1010.23,VALID,0,INVALID,134.122,VALID,0,VALID,22.8173,VALID,257,VALID,0,
2014-08-11, 01:59:04,VALID,1010.22,VALID,0,INVALID,134.084,VALID,0,VALID,22.7766,VALID,257,VALID,0,
2014-08-11, 02:00:04,VALID,1010.23,VALID,0,INVALID,134.114,VALID,0.112112,VALID,22.7783,VALID,257,VALID,0,
2014-08-11, 02:01:04,VALID,1010.27,VALID,0,INVALID,134.091,VALID,0,VALID,22.7783,VALID,257,VALID,0,
2014-08-11, 02:02:04,VALID,1010.34,VALID,0,INVALID,133.992,VALID,0,VALID,22.7571,VALID,257,VALID,0,
2014-08-11, 02:03:04,VALID,1010.37,VALID,0,INVALID,133.939,VALID,0.112112,VALID,22.7766,VALID,257,VALID,0,
2014-08-11, 02:04:04,VALID,1010.42,VALID,0,INVALID,133.908,VALID,0,VALID,22.7588,VALID,257,VALID,0,
2014-08-11, 02:05:04,VALID,1010.48,VALID,0,INVALID,133.878,VALID,0.112112,VALID,22.7571,VALID,257,VALID,0,
2014-08-11, 02:06:04,VALID,1010.54,VALID,0,INVALID,133.832,VALID,0.112112,VALID,22.7766,VALID,257,VALID,0,
2014-08-11, 02:07:04,VALID,1010.6,VALID,0,INVALID,133.779,VALID,0,VALID,22.7766,VALID,257,VALID,0,
2014-08-11, 02:08:04,VALID,1010.64,VALID,0,INVALID,133.687,VALID,0,VALID,22.7978,VALID,257,VALID,0,
2014-08-11, 02:09:04,VALID,1010.7,VALID,0,INVALID,133.588,VALID,0,VALID,22.7978,VALID,257,VALID,0,
2014-08-11, 02:10:04,VALID,1010.7,VALID,0,INVALID,133.496,VALID,0,VALID,22.8368,VALID,257,VALID,0,
2014-08-11, 02:11:04,VALID,1010.73,VALID,0,INVALID,133.291,VALID,0,VALID,22.8562,VALID,257,VALID,0,
2014-08-11, 02:12:04,VALID,1010.75,VALID,0,INVALID,133.138,VALID,0,VALID,22.8757,VALID,257,VALID,0,
2014-08-11, 02:13:04,VALID,1010.72,VALID,0,INVALID,133.024,VALID,0,VALID,22.8952,VALID,257,VALID,0,
2014-08-11, 02:14:04,VALID,1010.72,VALID,0,INVALID,132.909,VALID,0,VALID,22.9147,VALID,257,VALID,0,
2014-08-11, 02:15:04,VALID,1010.7,VALID,0,INVALID,132.665,VALID,0,VALID,22.9342,VALID,257,VALID,0,
2014-08-11, 02:16:04,VALID,1010.71,VALID,0,INVALID,132.642,VALID,0,VALID,22.9342,VALID,257,VALID,0,
2014-08-11, 02:17:04,VALID,1010.71,VALID,0,INVALID,132.642,VALID,0.112112,VALID,22.9324,VALID,257,VALID,0,
2014-08-11, 02:18:04,VALID,1010.69,VALID,0,INVALID,132.635,VALID,0,VALID,22.9536,VALID,257,VALID,0,
2014-08-11, 02:19:04,VALID,1010.68,VALID,0,INVALID,132.772,VALID,0,VALID,22.9324,VALID,266,VALID,0,
2014-08-11, 02:20:04,VALID,1010.68,VALID,0,INVALID,132.734,VALID,0,VALID,22.9536,VALID,266,VALID,0,
2014-08-11, 02:21:04,VALID,1010.63,VALID,0,INVALID,132.566,VALID,0,VALID,22.9943,VALID,266,VALID,0,
2014-08-11, 02:22:04,VALID,1010.63,VALID,0,INVALID,132.696,VALID,0,VALID,22.9536,VALID,266,VALID,0,
2014-08-11, 02:23:04,VALID,1010.63,VALID,0,INVALID,132.871,VALID,0,VALID,22.9536,VALID,266,VALID,0,
2014-08-11, 02:24:04,VALID,1010.64,VALID,0,INVALID,132.78,VALID,0,VALID,22.9342,VALID,265,VALID,0,
2014-08-11, 02:25:04,VALID,1010.64,VALID,0,INVALID,132.818,VALID,0.112112,VALID,22.9342,VALID,265,VALID,0,
2014-08-11, 02:26:04,VALID,1010.7,VALID,0,INVALID,132.719,VALID,0,VALID,22.9147,VALID,266,VALID,0,
2014-08-11, 02:27:04,VALID,1010.65,VALID,0,INVALID,132.612,VALID,0,VALID,22.9536,VALID,266,VALID,0,
2014-08-11, 02:28:04,VALID,1010.67,VALID,0,INVALID,132.581,VALID,0,VALID,22.9536,VALID,268,VALID,0,
2014-08-11, 02:29:04,VALID,1010.68,VALID,0,INVALID,132.619,VALID,0,VALID,22.9342,VALID,275,VALID,0,
2014-08-11, 02:30:04,VALID,1010.65,VALID,0,INVALID,132.635,VALID,0,VALID,22.9147,VALID,275,VALID,0,
2014-08-11, 02:31:04,VALID,1010.66,VALID,0,INVALID,132.81,VALID,0.112112,VALID,22.8935,VALID,275,VALID,0,
2014-08-11, 02:32:04,VALID,1010.65,VALID,0,INVALID,132.726,VALID,0,VALID,22.8952,VALID,275,VALID,0,
2014-08-11, 02:33:04,VALID,1010.67,VALID,0,INVALID,132.719,VALID,0.112112,VALID,22.9147,VALID,275,VALID,0,
2014-08-11, 02:34:04,VALID,1010.66,VALID,0,INVALID,132.589,VALID,0,VALID,22.9147,VALID,275,VALID,0,
2014-08-11, 02:35:04,VALID,1010.68,VALID,0,INVALID,132.505,VALID,0,VALID,22.9147,VALID,275,VALID,0,
2014-08-11, 02:36:04,VALID,1010.65,VALID,0,INVALID,132.543,VALID,0,VALID,22.9147,VALID,282,VALID,0,
2014-08-11, 02:37:04,VALID,1010.64,VALID,0,INVALID,132.558,VALID,0,VALID,22.8935,VALID,282,VALID,0,
2014-08-11, 02:38:04,VALID,1010.66,VALID,0,INVALID,132.528,VALID,0,VALID,22.9147,VALID,282,VALID,0,
2014-08-11, 02:39:04,VALID,1010.63,VALID,0,INVALID,132.696,VALID,0.112112,VALID,22.874,VALID,282,VALID,0,
2014-08-11, 02:40:04,VALID,1010.58,VALID,0,INVALID,132.566,VALID,0,VALID,22.9147,VALID,282,VALID,0,
2014-08-11, 02:41:04,VALID,1010.59,VALID,0,INVALID,132.612,VALID,0,VALID,22.8952,VALID,282,VALID,0,
2014-08-11, 02:42:04,VALID,1010.58,VALID,0,INVALID,132.642,VALID,0,VALID,22.8952,VALID,294,VALID,0,
2014-08-11, 02:43:04,VALID,1010.59,VALID,0,INVALID,132.818,VALID,0,VALID,22.8969,VALID,355,VALID,0,
2014-08-11, 02:44:04,VALID,1010.57,VALID,0,INVALID,132.848,VALID,0,VALID,22.8562,VALID,355,VALID,0,
2014-08-11, 02:45:04,VALID,1010.56,VALID,0,INVALID,132.886,VALID,0,VALID,22.8562,VALID,355,VALID,0,
2014-08-11, 02:46:04,VALID,1010.53,VALID,0,INVALID,132.947,VALID,0,VALID,22.8562,VALID,355,VALID,0,
2014-08-11, 02:47:04,VALID,1010.56,VALID,0,INVALID,132.925,VALID,0,VALID,22.8368,VALID,355,VALID,0,
2014-08-11, 02:48:04,VALID,1010.56,VALID,0,INVALID,132.78,VALID,0,VALID,22.8562,VALID,355,VALID,0,
2014-08-11, 02:49:04,VALID,1010.55,VALID,0,INVALID,132.635,VALID,0,VALID,22.8757,VALID,355,VALID,0,
2014-08-11, 02:50:04,VALID,1010.55,VALID,0,INVALID,132.558,VALID,0,VALID,22.8757,VALID,355,VALID,0,
2014-08-11, 02:51:04,VALID,1010.53,VALID,0,INVALID,132.536,VALID,0,VALID,22.8757,VALID,355,VALID,0,
2014-08-11, 02:52:04,VALID,1010.53,VALID,0,INVALID,132.696,VALID,0,VALID,22.8562,VALID,355,VALID,0,
2014-08-11, 02:53:04,VALID,1010.54,VALID,0,INVALID,132.642,VALID,0,VALID,22.8562,VALID,355,VALID,0,
2014-08-11, 02:54:04,VALID,1010.51,VALID,0,INVALID,132.711,VALID,0,VALID,22.8368,VALID,355,VALID,0,
2014-08-11, 02:55:04,VALID,1010.49,VALID,0,INVALID,132.78,VALID,0,VALID,22.8155,VALID,355,VALID,0,
2014-08-11, 02:56:04,VALID,1010.52,VALID,0,INVALID,132.68,VALID,0,VALID,22.8368,VALID,355,VALID,0,
2014-08-11, 02:57:04,VALID,1010.51,VALID,0,INVALID,132.642,VALID,0,VALID,22.8368,VALID,355,VALID,0,
2014-08-11, 02:58:04,VALID,1010.5,VALID,0,INVALID,132.612,VALID,0,VALID,22.8562,VALID,355,VALID,0,
2014-08-11, 02:59:04,VALID,1010.47,VALID,0,INVALID,132.589,VALID,0,VALID,22.8562,VALID,355,VALID,0,
2014-08-11, 03:00:04,VALID,1010.47,VALID,0,INVALID,132.711,VALID,0,VALID,22.8368,VALID,355,VALID,0,
2014-08-11, 03:01:04,VALID,1010.48,VALID,0,INVALID,132.696,VALID,0,VALID,22.8368,VALID,355,VALID,0,
2014-08-11, 03:02:04,VALID,1010.45,VALID,0,INVALID,132.604,VALID,0,VALID,22.8757,VALID,355,VALID,0,
2014-08-11, 03:03:04,VALID,1010.47,VALID,0,INVALID,132.406,VALID,0,VALID,22.8952,VALID,355,VALID,0,
2014-08-11, 03:04:04,VALID,1010.48,VALID,0,INVALID,132.444,VALID,0,VALID,22.8757,VALID,355,VALID,0,
2014-08-11, 03:05:04,VALID,1010.48,VALID,0,INVALID,132.543,VALID,0,VALID,22.8952,VALID,355,VALID,0,
2014-08-11, 03:06:04,VALID,1010.51,VALID,0,INVALID,132.528,VALID,0,VALID,22.8952,VALID,355,VALID,0,
2014-08-11, 03:07:04,VALID,1010.49,VALID,0,INVALID,132.543,VALID,0,VALID,22.9147,VALID,355,VALID,0,
2014-08-11, 03:08:05,VALID,1010.5,VALID,0,INVALID,132.52,VALID,0,VALID,22.9342,VALID,355,VALID,0,
2014-08-11, 03:09:05,VALID,1010.51,VALID,0,INVALID,132.505,VALID,0,VALID,22.9536,VALID,355,VALID,0,
2014-08-11, 03:10:05,VALID,1010.51,VALID,0,INVALID,132.467,VALID,0,VALID,22.9342,VALID,355,VALID,0,
2014-08-11, 03:11:05,VALID,1010.51,VALID,0,INVALID,132.543,VALID,0,VALID,22.9342,VALID,355,VALID,0,
2014-08-11, 03:12:05,VALID,1010.5,VALID,0,INVALID,132.619,VALID,0,VALID,22.9536,VALID,355,VALID,0,
2014-08-11, 03:13:05,VALID,1010.5,VALID,0,INVALID,132.688,VALID,0,VALID,22.9129,VALID,355,VALID,0,
2014-08-11, 03:14:05,VALID,1010.5,VALID,0,INVALID,132.696,VALID,0,VALID,22.9342,VALID,355,VALID,0,
2014-08-11, 03:15:05,VALID,1010.54,VALID,0,INVALID,132.566,VALID,0,VALID,22.9519,VALID,355,VALID,0,
2014-08-11, 03:16:05,VALID,1010.53,VALID,0,INVALID,132.665,VALID,0,VALID,22.9519,VALID,355,VALID,0,
2014-08-11, 03:17:05,VALID,1010.55,VALID,0,INVALID,132.581,VALID,0,VALID,23.0121,VALID,355,VALID,0,
2014-08-11, 03:18:05,VALID,1010.57,VALID,0,INVALID,132.543,VALID,0.112112,VALID,22.9926,VALID,355,VALID,0,
2014-08-11, 03:19:05,VALID,1010.55,VALID,0,INVALID,132.68,VALID,0,VALID,22.9926,VALID,355,VALID,0,
2014-08-11, 03:20:05,VALID,1010.55,VALID,0,INVALID,132.795,VALID,0,VALID,22.9926,VALID,355,VALID,0,
2014-08-11, 03:21:05,VALID,1010.57,VALID,0,INVALID,132.635,VALID,0,VALID,23.0121,VALID,355,VALID,0,
2014-08-11, 03:22:05,VALID,1010.58,VALID,0,INVALID,132.566,VALID,0,VALID,23.0121,VALID,355,VALID,0,
2014-08-11, 03:23:05,VALID,1010.58,VALID,0.5,INVALID,132.574,VALID,0.112112,VALID,23.0316,VALID,355,VALID,0,
2014-08-11, 03:24:05,VALID,1010.56,VALID,0,INVALID,132.589,VALID,0.112112,VALID,23.0121,VALID,355,VALID,0,
2014-08-11, 03:25:05,VALID,1010.58,VALID,0,INVALID,132.749,VALID,0,VALID,22.9731,VALID,355,VALID,0,
2014-08-11, 03:26:05,VALID,1010.57,VALID,0,INVALID,132.802,VALID,0,VALID,22.9519,VALID,355,VALID,0,
2014-08-11, 03:27:05,VALID,1010.56,VALID,0,INVALID,132.688,VALID,0,VALID,22.9926,VALID,355,VALID,0,
2014-08-11, 03:28:05,VALID,1010.56,VALID,0,INVALID,132.551,VALID,0,VALID,22.9926,VALID,355,VALID,0,
2014-08-11, 03:29:05,VALID,1010.6,VALID,0,INVALID,132.513,VALID,0,VALID,22.9926,VALID,355,VALID,0,
2014-08-11, 03:30:05,VALID,1010.59,VALID,0,INVALID,132.482,VALID,0,VALID,22.9519,VALID,355,VALID,0,
2014-08-11, 03:31:05,VALID,1010.6,VALID,0,INVALID,132.436,VALID,0,VALID,22.9731,VALID,355,VALID,0,
2014-08-11, 03:32:05,VALID,1010.58,VALID,0,INVALID,132.49,VALID,0,VALID,22.9536,VALID,355,VALID,0,
2014-08-11, 03:33:05,VALID,1010.6,VALID,0,INVALID,132.49,VALID,0,VALID,22.9536,VALID,355,VALID,0,
2014-08-11, 03:34:05,VALID,1010.61,VALID,0,INVALID,132.467,VALID,0.112112,VALID,22.9342,VALID,355,VALID,0,
2014-08-11, 03:35:05,VALID,1010.62,VALID,0.5,INVALID,132.459,VALID,0,VALID,22.9342,VALID,355,VALID,0,
2014-08-11, 03:36:05,VALID,1010.58,VALID,0,INVALID,132.353,VALID,0,VALID,22.9554,VALID,355,VALID,0,
2014-08-11, 03:37:05,VALID,1010.59,VALID,0,INVALID,132.208,VALID,0,VALID,22.9342,VALID,355,VALID,0,
2014-08-11, 03:38:05,VALID,1010.58,VALID,0,INVALID,132.131,VALID,0,VALID,22.9342,VALID,43,VALID,0,
2014-08-11, 03:39:05,VALID,1010.62,VALID,0,INVALID,132.063,VALID,0,VALID,22.9536,VALID,43,VALID,0,
2014-08-11, 03:40:05,VALID,1010.6,VALID,0,INVALID,131.941,VALID,0.112112,VALID,22.9324,VALID,43,VALID,0,
2014-08-11, 03:41:05,VALID,1010.6,VALID,0,INVALID,131.933,VALID,0,VALID,22.9536,VALID,65,VALID,0,
2014-08-11, 03:42:05,VALID,1010.59,VALID,0,INVALID,131.857,VALID,0.112112,VALID,22.9324,VALID,65,VALID,0,
2014-08-11, 03:43:05,VALID,1010.58,VALID,0,INVALID,131.926,VALID,0,VALID,22.9342,VALID,84,VALID,0,
2014-08-11, 03:44:05,VALID,1010.57,VALID,0,INVALID,131.872,VALID,0,VALID,22.9536,VALID,84,VALID,0,
2014-08-11, 03:45:05,VALID,1010.57,VALID,0,INVALID,131.796,VALID,0,VALID,22.9342,VALID,84,VALID,0,
2014-08-11, 03:46:05,VALID,1010.51,VALID,0,INVALID,131.758,VALID,0.112112,VALID,22.9129,VALID,84,VALID,0,
2014-08-11, 03:47:05,VALID,1010.5,VALID,0,INVALID,131.75,VALID,0,VALID,22.9129,VALID,84,VALID,0,
2014-08-11, 03:48:05,VALID,1010.47,VALID,0,INVALID,131.651,VALID,0,VALID,22.9536,VALID,84,VALID,0,
2014-08-11, 03:49:05,VALID,1010.47,VALID,0,INVALID,131.498,VALID,0,VALID,22.9731,VALID,84,VALID,0,
2014-08-11, 03:50:05,VALID,1010.44,VALID,0,INVALID,131.43,VALID,0.112112,VALID,22.9731,VALID,84,VALID,0,
2014-08-11, 03:51:05,VALID,1010.43,VALID,0,INVALID,131.43,VALID,0,VALID,22.9536,VALID,84,VALID,0,
2014-08-11, 03:52:05,VALID,1010.41,VALID,0,INVALID,131.483,VALID,0,VALID,22.9536,VALID,84,VALID,0,